Terug naar catalogus

COSMOS 1168

ActiefMilitairPO
NORAD 11735·PAYLOAD·🇷🇺 Russia

Gelanceerd Mar 17, 1980 vanaf Plesetsk Cosmodrome

Loading…

Volgende Passages (komende 24 uur)

TLE

VersSource: Space-Track

Epoch: Sep 14, 2026, 07:26 UTC

1 11735U 80022A   26257.31001150  .00000039  00000-0  24772-4 0  9990
2 11735  82.9475 208.4047 0036807 110.9091  51.6554 13.75259029332405

Volg COSMOS 1168 in realtime met AllMySat

Download on the App Store